Location: Chippewa Lake
(41.0698°N, 81.9010°W)
Time: 23:37:09
(UTC+00:00)

Cosmos 1725 Rocket - Pass Details

Date: 09 May 2021
Orbit: 961 x 991 km, 82.9° (Epoch: 24 June)

Event Time Altitude Azimuth Distance (km) Brightness Sun altitude
Rises 07:55:47 0° 353° (N) 3,697 7.7 -21.7°
Reaches altitude 10° 07:58:19 10° 354° (N) 2,740 6.9 -21.4°
Maximum altitude 08:04:37 83° 82° (E) 986 4.0 -20.7°
Enters shadow 08:09:25 18° 171° (S) 2,186 5.5 -20.1°
